• MPC Preparation (Info)

  • MPEC 2022-U64 : 2011 FS29

    The following Minor Planet Electronic Circular may be linked-to from your own Web pages, but must not otherwise be redistributed electronically.

    A form allowing access to any MPEC is at the bottom of this page.


    Read MPEC 2022-U63 Read MPEC 2022-U65


    M.P.E.C. 2022-U64                              Issued 2022 October 19, 14:04 UT
    
         The Minor Planet Electronic Circulars contain information on unusual
             minor planets and routine data on comets.  They are published
        on behalf of Division F of the International Astronomical Union by the
              Minor Planet Center, Smithsonian Astrophysical Observatory,
                              Cambridge, MA 02138, U.S.A.
    
                 Prepared using the Tamkin Foundation Computer Network
    
                                  MPC@CFA.HARVARD.EDU
                URL https://www.minorplanetcenter.net/    ISSN 1523-6714
    
                                    2011 FS29                                
    
    
                                Revision to MPEC 2011-G6                            
    
    Additional Observations:
         K11F29S 0C2022 09 19.24748319 46 51.471-46 25 50.58         22.67GVEU064T14
         K11F29S 0C2022 09 20.24266319 51 55.106-45 37 33.96         23.30GVEU064T14
         K11F29S 0C2022 09 21.26238619 56 53.165-44 48 23.35         23.48GVEU064T14
         K11F29S 0C2022 09 21.26382419 56 53.560-44 48 19.19         23.13GVEU064T14
         K11F29S 0C2022 09 21.26526419 56 53.959-44 48 15.04         22.74GVEU064T14
    
    Observer details:
    T14 Canada-France-Hawaii Telescope, Maunakea.  Observer C. Cunningham.
        Measurer D. J. Tholen.  3.6-m f/4.1 reflector + 1024 x 2306 pixels
        Megacam.
    
    First and last observations above in comparison with prediction:
    Residuals in seconds of arc (or two decimals in degrees), reference and Delta-T
    220919 T14 0.15+ 0.01+    220921 T14 0.15+ 0.02+    MPO208312   +0.08 days
    
    Orbital elements:
    2011 FS29                                                Earth MOID = 0.0267 AU
    Epoch 2022 Aug. 9.0 TT = JDT 2459800.5                  Veres                   
    M  21.14809              (2000.0)            P               Q                  
    n   0.53272073     Peri.  231.35744     -0.29133765     +0.95314558             
    a   1.5070800      Node    22.12117     -0.79667391     -0.19460538             
    e   0.3798026      Incl.   12.49330     -0.52955931     -0.23160798             
    P   1.85           H   22.68          G   0.15           U   0                  
    Residuals in seconds of arc
    110331 704  0.1+  1.0+    110403 157  0.1-  0.3+    110410 A24  0.3+  0.2+
    110331 704  1.3+  0.5+    110403 157  0.1+  0.1+    110410 A24  0.1+  0.5+
    110331 704  0.4+  1.2-    110403 J18  0.1-  0.3+    110411 A24  0.2-  0.4-
    110331 704  0.6-  0.1+    110404 807  0.2-  0.1-    110411 A24  0.9-  0.1+
    110331 704  0.5+  0.6+    110404 807  0.1-  0.0     110411 A24  0.5-  0.7+
    110401 I19  0.6+  0.5-    110404 807  0.3-  0.0     110411 704  0.6+  0.3+
    110401 I19  0.2+  0.5+    110404 807  0.0   0.2+    110411 704  0.6+  0.6+
    110401 I19  0.6-  0.4-    110404 703  0.8-  0.1+    110411 704  0.2+  0.6+
    110401 854  0.5+  0.1-    110404 703  0.5-  0.1+    110411 704  0.4+  0.7+
    110401 854  0.4+  0.1+    110404 703  0.0   0.6+    110411 704  0.9+  1.5+
    110401 854 (2.0+  0.3-)   110405 703  0.0   0.3+    110411 D90  0.3+  0.4-
    110401 H10  0.6-  0.9+    110405 703  0.2+  0.1+    110411 D90  0.4+  0.4-
    110401 H10  0.6-  0.3+    110405 807  0.3-  0.0     110411 D90  0.4+  0.5-
    110401 H10  0.8-  0.4+    110405 807  0.3-  0.3-    110411 D90  0.6+  0.0
    110401 704  0.2-  0.4+    110405 703  0.2-  0.0     110412 704  0.0   0.0
    110401 704  0.4-  0.1+    110405 807  0.3-  0.0     110412 704  0.1-  0.7+
    110401 704  1.2-  0.2+    110405 807  0.3-  0.2-    110412 704  0.3+  0.5+
    110401 704  0.2-  0.5+    110405 703  0.3+  0.1-    110412 704  0.4+  0.4+
    110401 704  0.3+  0.1+    110406 A24  0.5-  0.2-    110412 704  0.4+  0.4+
    110401 900  0.5+  0.3+    110406 A24  0.8-  0.6-    110412 300  0.1+  0.1+
    110401 900  0.1+  0.5-    110406 H21  0.1+  0.5+    110412 300  0.1-  0.6+
    110401 900  0.2-  0.2+    110406 H21  0.0   0.5+    110412 300  0.0   0.3+
    110402 H21  0.2-  0.1+    110406 H21  0.0   0.3+    110412 300  0.3-  0.2+
    110402 H21  0.0   0.3+    110406 H21  0.1+  0.2+    110412 300  0.2-  0.4+
    110402 H21  0.1-  0.1+    110407 H26  0.0   0.4-    110413 704  0.9+  0.1+
    110402 H21  0.0   0.2+    110407 H26  0.1+  0.1+    110413 704  0.6+  0.2-
    110402 807  0.0   0.0     110407 H26  0.0   0.1+    110413 704  0.3+  0.3+
    110402 807  0.1+  0.0     110408 157  0.1+  0.2+    110414 807  0.1+  0.1-
    110402 807  0.1-  0.1-    110408 157  0.1-  0.2+    110414 807 (0.2+  0.6-)
    110402 807  0.1-  0.1+    110408 157  0.3+  0.4+    110414 807 (0.2+  0.6-)
    110402 807  0.1-  0.1+    110408 157  0.1+  0.3+    110416 807 (0.5-  0.6+)
    110402 B03  0.2+  0.2+    110410 A24  0.1-  0.6-    110416 807  0.2-  0.2+
    110402 B03  0.3+  0.0     110410 A24  0.0   0.1-    110416 807 (0.3-  0.5+)
    110402 B03  0.1-  0.4+    110410 A24  0.2-  0.6-    110416 807  0.1+  0.1-
    110402 B03  0.2-  0.0     110410 A24  0.4-  0.3-    110901 568  0.1-  0.0
    110402 B03  0.1+  0.4+    110410 A24  0.4-  0.2-    110901 568  0.1-  0.0
    110403 807  0.1-  0.1+    110410 A24  0.0   0.4-    110903 568  0.0   0.0
    110403 807  0.2-  0.1-    110410 A24  0.3+  0.2+    110903 568  0.0   0.0
    110403 807  0.1-  0.0     110410 H21  0.2-  0.2+    220919 T14  0.0   0.0
    110403 807  0.2-  0.1-    110410 H21  0.3-  0.3+    220920 T14  0.0   0.1-
    110403 J18  0.3+  0.1+    110410 H21  0.2-  0.1+    220921 T14  0.0   0.0
    110403 J18  0.4+  0.2+    110410 H21  0.1-  0.3+    220921 T14  0.0   0.0
    110403 157  0.1+  0.3+    110410 A24  0.1+  0.3+    220921 T14  0.0   0.0
    
    Ephemeris:
    2011 FS29                a,e,i = 1.51, 0.38, 12                  q = 0.9347
    Date    TT    R. A. (2000) Decl.     Delta      r    Elong.  Phase     V
    2022 09 19    19 45 33.5 -46 37 37   0.4465  1.2405   111.6    48.9    23.2
    ...
    2022 10 04    20 45 43.5 -35 17 49   0.5659  1.3267   112.8    44.0    23.8
    ...
    2022 10 12    21 08 30.0 -30 10 58   0.6432  1.3724   111.6    42.5    24.1
    ...
    2022 10 18    21 23 20.5 -26 46 00   0.7066  1.4063   110.2    41.7    24.3
    2022 10 19    21 25 40.7 -26 13 45   0.7176  1.4119   109.9    41.6    24.3
    2022 10 20    21 27 59.0 -25 42 01   0.7287  1.4175   109.6    41.5    24.4
    ...
    2022 10 26    21 41 13.5 -22 41 40   0.7975  1.4508   107.6    40.8    24.6
    ...
    2022 11 03    21 57 41.8 -19 04 46   0.8947  1.4943   104.6    40.0    24.9
    ...
    2022 11 18    22 26 20.2 -13 13 51   1.0907  1.5726    98.2    38.5    25.4
    
    A. U. Tomatic                (C) Copyright 2022 MPC           M.P.E.C. 2022-U64
    


    Read MPEC 2022-U63 Read MPEC 2022-U65


    MPEC number:

    Enter an MPEC number in one of the following forms:

    • 1997-B01 (the full form)
    • J97B01 (the packed version of the full form)
    • B01 (the abbreviated form)